Find Starlink 30107

NORAD ID: 56287 Int'l Des: 2023-056 Owner: SPXS Country: US Constellation: starlink operational
LEOCIRCULAR

現在のビュー

3D地球を読み込み中...

About Starlink 30107

Starlink 30107 (NORAD 56287) is a starlink constellation satellite (v2 mini) launched Apr 19, 2023 by SPXS of US. It operates in LEO, CIRCULAR orbit with a mass of 730.00 kg.

次回通過

Passes for default location (London). Set your location on the main map for personalized predictions.

高度履歴

Loading altitude history...

軌道要素

1 56287U 23056B 26263.44390176 .00003049 00000-0 12035-3 0 9997
2 56287 43.0016 171.2817 0000997 276.6877 83.3861 15.27560345190084
Epoch: Sep 20, 2026 • Age: 18 hours

現在のステータス

高度 491.7 km
遠地点 / 近地点 N/A
速度 7.62 km/s
衛星直下点 -32.66°S, 43.89°W
打ち上げ日 Apr 19, 2023
運用期間 3.4 years
タイプ internet

技術仕様

分類 Payload
質量 730.00 kg
乾燥質量 700.00 kg
長さ 0.30 m
スパン 29.00 m
形状 ? Box + pan
製造者 SPXS
バスタイプ Starlink V2M
フェーズステータス In Orbit
所有者/国 SPXS/US

Most Searched